This demonstration page uses our WeatherBlox Daily Observations layout. Learn more.

38.89511, -77.03637

Hourly Observations for July 9, 2017

Temp ( °F °C ) Dew Point ( °F °C ) Humidity (%) Winds ( mph kmh ) Pressure ( in mb ) Visibility ( mi km ) Precip ( " mm )
12:52 am 00:52 Partly Cloudy 75 23.9 59 15 58 58 NNW 10 17 29.94 1014 10 16.09344 0 0
1:52 am 01:52 Mostly Cloudy 72 22.2 61 16.1 68 68 NNW 8 13 29.94 1014 10 16.09344 0 0
2:52 am 02:52 Partly Cloudy 71 21.7 61 16.1 71 71 N 6 9 29.94 1014 10 16.09344 0 0
3:52 am 03:52 Partly Cloudy 71 21.7 62 16.7 73 73 NNW 10 17 29.97 1015 10 16.09344 0 0
4:52 am 04:52 Partly Cloudy 71 21.7 62 16.7 73 73 NW 12 19 29.97 1015 10 16.09344 0 0
5:52 am 05:52 Mostly Sunny 70 21.1 62 16.7 76 76 NNW 13 20 30 1016 10 16.09344 0 0
6:52 am 06:52 Sunny 70 21.1 63 17.2 79 79 N 9 15 30.03 1017 10 16.09344 0 0
7:52 am 07:52 Sunny 74 23.3 62 16.7 67 67 NW 9 15 30.03 1017 10 16.09344 0 0
8:52 am 08:52 Sunny 75 23.9 61 16.1 62 62 NNW 9 15 30.06 1018 10 16.09344 0 0
9:52 am 09:52 Sunny 78 25.6 60 15.6 54 54 NW 12 19 30.06 1018 10 16.09344 0 0
10:52 am 10:52 Mostly Sunny 80 26.7 55 12.8 42 42 NNW 12 19 30.06 1018 10 16.09344 0 0
11:52 am 11:52 Mostly Sunny 81 27.2 55 12.8 41 41 N 7 11 30.09 1019 10 16.09344 0 0
12:52 pm 12:52 Mostly Sunny 83 28.3 54 12.2 37 37 WNW 9 15 30.06 1018 10 16.09344 0 0
1:52 pm 13:52 Partly Cloudy 83 28.3 53 11.7 36 36 W 12 19 30.06 1018 10 16.09344 0 0
2:52 pm 14:52 Mostly Sunny 84 28.9 54 12.2 36 36 W 10 17 30.06 1018 10 16.09344 0 0
3:52 pm 15:52 Mostly Sunny 86 30 54 12.2 33 33 N 5 7 30.03 1017 10 16.09344 0 0
4:52 pm 16:52 Mostly Sunny 85 29.4 56 13.3 37 37 Calm 30.03 1017 10 16.09344 0 0
5:52 pm 17:52 Mostly Sunny 85 29.4 56 13.3 37 37 NW 8 13 30.03 1017 10 16.09344 0 0
6:52 pm 18:52 Mostly Sunny 84 28.9 56 13.3 38 38 ENE 6 9 30.03 1017 10 16.09344 0 0
7:52 pm 19:52 Mostly Sunny 83 28.3 57 13.9 41 41 Calm 30.03 1017 10 16.09344 0 0
8:52 pm 20:52 Mostly Clear 80 26.7 62 16.7 54 54 SSE 3 6 30.03 1017 10 16.09344 0 0
9:52 pm 21:52 Partly Cloudy 79 26.1 57 13.9 47 47 E 7 11 30.03 1017 10 16.09344 0 0
10:52 pm 22:52 Partly Cloudy 78 25.6 56 13.3 47 47 ENE 5 7 30.06 1018 10 16.09344 0 0
11:52 pm 23:52 Partly Cloudy 76 24.4 62 16.7 62 62 S 5 7 30.06 1018 10 16.09344 0 0

Powered by AerisWeather